{"data":{"norad_id":62382,"epoch":"2026-09-20T21:28:58.850976Z","epoch_age_seconds":277783,"freshness":"STALE","line1":"1 62382U 24247F   26263.89512559  .00004357  00000+0  15072-3 0  9999","line2":"2 62382  44.9922 123.2587 0001897  46.9392 313.1651 15.31427042 97677","mean_motion":15.31427042,"eccentricity":0.0001897,"inclination_deg":44.9922,"raan_deg":123.2587,"arg_perigee_deg":46.9392,"mean_anomaly_deg":313.1651,"bstar":0.00015072,"rev_number":9767,"period_min":94.029944653413,"perigee_km":470.25440333095,"apogee_km":472.85317601655,"semimajor_km":6849.6907896738,"source":"CELESTRAK","updated_at":"2026-09-23T09:00:21.391837Z"}}